Tracking 31027 objects as of 19-Jul-2025
HD Live streaming from Space Station
objects crossing your sky now

STARLINK-5787

Track STARLINK-5787 now!
10-day predictions
STARLINK-5787 is classified as:


NORAD ID: 56004
Int'l Code: 2023-042U
Perigee: 565.2 km
Apogee: 567.2 km
Inclination: 43.0 °
Period: 95.8 minutes
Semi major axis: 6937 km
RCS: Unknown
Launch date: March 24, 2022
Source: United States (US)
Launch site: AIR FORCE EASTERN TEST RANGE (AFETR)
Your satellite tracking list
FLOCK 3P 17
Track 1 satellite(s)




NASA's NSSDC Master Catalog

Two Line Element Set (TLE):
1 56004U 23042U   25199.55068170 -.00000558  00000-0 -26262-4 0  9996
2 56004  43.0033 248.0300 0001478 284.9895  75.0784 15.02537617127695
Source of the keplerian elements: AFSPC